Location: Woodstock
(43.1330°N, 80.7500°W)
Time: 21:59:38
(UTC-05:00)

Daily predictions for brighter satellites

Satellite Brightness Start Highest point End
(mag) Time Altitude Azimuth Time Altitude Azimuth Time Altitude Azimuth
Cosmos 372 Rocket 3.9 17:45:23 10° NNW 17:50:28 66° ENE 17:55:32 10° SSE
IDEFIX/ARIANE 42P 2.8 17:47:50 10° S 17:53:03 80° WSW 17:58:20 10° NNW
Cosmos 540 Rocket 3.5 17:49:20 10° SSW 17:54:29 75° ESE 17:59:40 10° NNE
Aureole 2 Rocket 2.9 17:51:00 10° S 17:54:41 52° ESE 17:58:40 10° NNE
Cosmos 2360 Rocket 4.4 17:52:26 10° W 17:56:26 20° NW 18:00:28 10° N
Cosmos 1515 Rocket 4.0 17:53:37 10° NNW 17:58:04 70° W 18:02:29 10° S
CORIOLIS 4.2 17:52:57 10° SSE 17:58:18 86° ENE 18:03:42 10° NNW
USA 215 3.8 17:55:27 10° E 18:01:28 41° NNE 18:07:30 10° NW
Cosmos 2058 3.1 17:57:55 10° S 18:01:52 50° E 18:05:51 10° NNE
Cosmos 2084 4.5 17:58:18 10° WSW 18:01:54 36° NW 18:05:27 10° NNE
ATLAS 5 CENTAUR R/B 4.2 18:00:33 10° N 18:02:21 11° NNE 18:04:13 10° NE
Cosmos 1980 3.8 17:56:52 10° SSW 18:02:33 84° WNW 18:08:17 10° NNE
Lacrosse 5 3.8 18:00:30 10° NW 18:03:48 17° N 18:07:06 10° NE
Cosmos 1805 Rocket 4.3 18:01:34 10° SSE 18:05:34 34° E 18:09:37 10° NNE
SKYMED 2 4.0 18:03:06 10° NNE 18:07:14 41° E 18:11:20 10° S
Cosmos 1900 4.4 18:02:22 10° NNW 18:07:15 56° NE 18:12:10 10° SE
Cosmos 1461 3.2 18:03:57 10° SSW 18:07:57 46° ESE 18:11:52 10° NE
Cosmos 1500 Rocket 4.3 18:08:01 10° SSW 18:12:17 57° W 18:16:37 10° N
Meteor 1-11 4.2 18:08:42 10° S 18:14:22 72° E 18:20:08 10° NNE
Cosmos 1626 3.0 18:11:26 10° SSE 18:14:41 29° E 18:17:57 10° NNE
Cosmos 44 4.1 18:12:30 10° SW 18:17:38 55° NW 18:22:33 10° NNE
NOSS 0 Rocket 4.4 18:11:57 10° SW 18:18:07 63° WNW 18:24:19 10° NNE
Sich 1 3.9 18:14:46 10° SSE 18:18:39 30° E 18:22:32 10° NNE
Cosmos 2219 Rocket 3.4 18:14:16 10° SW 18:19:36 42° WNW 18:24:56 10° NNE
Lacrosse 5 rocket 2.6 18:16:21 10° WNW 18:19:56 41° SW 18:23:42 10° SSE
CZ-2C R/B 3.8 18:16:02 10° S 18:20:44 43° W 18:25:18 10° NNW
Cosmos 1356 Rocket 3.9 18:18:17 10° SSE 18:21:55 35° E 18:25:35 10° NNE
ALOS 3.5 18:21:48 10° ESE 18:25:12 20° ENE 18:28:36 10° NNE
Cosmos 2333 Rocket 3.2 18:20:57 10° SW 18:26:23 47° WNW 18:31:52 10° NNE
Cosmos 1726 3.6 18:24:20 10° NNW 18:27:55 42° W 18:31:29 10° SSW
Cosmos 1633 Rocket 3.7 18:25:00 10° SSE 18:28:58 34° E 18:32:55 10° NNE
CENTAUR R/B 4.1 18:27:15 10° W 18:32:42 28° NNW 18:38:45 10° NNE
Cosmos 2278 Rocket 3.5 18:27:42 10° NW 18:33:03 43° WSW 18:38:23 10° S
Coronas F rocket 3.3 18:33:09 10° SE 18:33:36 13° SE 18:33:36 13° SE
Cosmos 1455 2.4 18:31:56 10° N 18:35:36 44° ENE 18:39:16 10° SSE
FAST Rocket 4.1 18:36:45 10° S 18:39:16 49° E 18:41:55 12° NNE
Abrixas 3.2 18:39:01 10° W 18:41:50 41° NNW 18:42:57 27° NE
USA 229 DEB 4.0 18:35:43 10° S 18:42:09 46° ESE 18:47:09 17° NE
USA 229 4.0 18:35:50 10° S 18:42:16 45° ESE 18:47:12 17° NE
Cosmos 1703 3.2 18:41:35 10° S 18:45:28 85° W 18:49:23 10° N
Cosmos 1242 Rocket 4.3 18:43:45 10° NNE 18:44:49 16° NNE 18:44:49 16° NNE
Cosmos 1184 Rocket 2.9 18:43:40 10° S 18:46:55 51° E 18:48:43 23° NNE
SJ-6B 3.0 18:45:30 10° SSE 18:49:28 54° ENE 18:53:32 10° N
Spot 2 Rocket 4.1 18:45:45 10° SE 18:50:13 33° ENE 18:54:42 10° N
Orbus 7S? 4.4 18:46:32 10° NW 18:50:30 54° NE 18:59:35 10° ESE
DMSP B5D1-3 4.4 18:46:50 10° NNE 18:51:58 85° ESE 18:57:04 10° SSW
Cosmos 1707 Rocket 3.6 18:49:13 10° N 18:53:34 82° W 18:57:54 10° S
Iridium 4 Rocket 3.4 18:49:40 10° SSE 18:53:49 40° E 18:57:11 13° NNE
COSMO-SKYMED 1 3.1 18:51:01 10° N 18:55:19 59° WNW 18:59:34 10° SSW
SL-19 R/B 4.4 18:52:03 10° SE 18:57:39 52° ENE 19:03:03 10° N
Cosmos 2237 Rocket 3.6 18:52:49 10° WSW 18:57:56 35° NW 19:03:07 10° N
Cosmos 2369 Rocket 3.1 18:55:58 10° N 19:00:45 27° NE 19:01:00 27° ENE
H-2A ROCKET BODY 4.3 18:39:00 10° WSW 19:03:51 36° SSW 19:09:18 13° SE
Cosmos 1666 Rocket 3.6 19:00:40 10° S 19:05:00 79° W 19:09:25 10° N
SL-16 R/B 2.5 19:00:33 10° SW 19:06:09 65° WNW 19:11:48 10° NNE
Cosmos 1538 Rocket 4.2 19:01:46 10° SSW 19:07:03 74° WNW 19:12:26 10° NNE
FREGAT/IRIS 2.5 19:05:01 10° SSE 19:08:04 90° SW 19:11:08 10° NNW
Resurs 01 Rocket 1.7 19:12:15 24° SE 19:14:40 53° ENE 19:19:01 10° N
Resurs 1-3 4.4 19:15:59 35° NNE 19:15:59 35° NNE 19:18:56 10° N
Cosmos 923 Rocket 3.9 19:09:43 10° S 19:14:50 60° ESE 19:16:59 34° NE
Cosmos 1933 Rocket 3.7 19:12:15 10° S 19:16:31 51° E 19:16:31 51° E
Cosmos 1680 Rocket 3.6 19:16:14 10° S 19:21:16 53° ESE 19:22:05 48° ENE
Cosmos 1655 Rocket 4.3 19:17:07 10° SSE 19:23:03 42° E 19:24:06 39° ENE
CZ-4C R/B 4.0 19:17:55 10° NNW 19:23:03 22° NNE 19:23:28 22° NE
Lacrosse 4 Rocket 1.4 19:19:33 10° NNW 19:23:36 74° WSW 19:25:17 33° SSE
Cosmos 1627 Rocket 4.4 19:19:20 10° S 19:25:21 57° E 19:31:21 10° NNE
Cosmos 1869 3.7 19:25:55 10° NNW 19:29:56 64° W 19:33:55 10° S
Tiangong 1 3.6 19:27:55 10° SSW 19:28:39 15° SSW 19:28:39 15° SSW
FENGYUN 3A 3.5 19:25:43 10° SSE 19:31:04 82° ENE 19:36:29 10° NNW
NOSS 3-1 (C) 4.0 19:28:33 10° S 19:32:51 36° SE 19:32:51 36° SE
Cosmos 1470 Rocket 3.4 19:33:42 10° S 19:38:03 85° W 19:38:13 81° NNW
Cosmos 1943 4.2 19:38:41 10° S 19:41:55 32° SSE 19:41:55 32° SSE
USA 215 3.3 19:40:52 33° SE 19:44:09 80° SW 19:50:45 10° NW
ATLAS 3B R/B 4.3 19:41:28 10° NNW 19:45:53 19° NNE 19:45:53 19° NNE
Lacrosse 5 3.6 19:44:30 10° NNW 19:47:19 20° N 19:47:19 20° N
ATLAS 5 CENTAUR R/B 3.5 19:43:44 10° NNW 19:47:23 28° NNE 19:47:23 28° NNE
Cosmos 2026 Rocket 3.8 19:46:16 10° S 19:52:28 83° E 19:55:59 27° N
Cosmos 2112 Rocket 4.0 19:52:33 10° SSW 19:57:12 72° SSW 19:57:12 72° SSW
ALOS 3.2 19:57:50 10° S 20:02:18 46° W 20:06:49 10° NNW
Cosmos 1943 Rocket 3.9 20:00:53 10° NNW 20:02:43 20° N 20:02:43 20° N
Meteor 2-20 4.4 20:02:10 10° S 20:08:18 83° W 20:09:17 64° N
Cosmos 1603 4.3 20:05:33 10° SW 20:11:01 53° WNW 20:12:04 46° NNW
BREEZE-M DEB (TANK) 4.4 20:07:06 10° WNW 20:18:38 53° NNW 20:18:38 53° NNW
Cosmos 2369 Rocket 3.6 20:39:35 10° NW 20:42:50 33° NW 20:42:50 33° NW
Resurs 01 Rocket 4.4 20:49:45 13° WSW 20:51:28 15° W 20:54:03 10° NW
CZ-4C R/B 4.3 21:05:51 10° NNW 21:08:40 27° NNW 21:08:40 27° NNW
